Regional Weather Roundup
Issued by NWS

Home | Current Version | Previous Version | Graphics & Text | Print | Product List | Glossary On
Versions: 1 2 3 4 5 6 7 8 9 10 11 12 13 14 15 16 17 18 19 20 21 22 23 24 25 26 27 28 29 30 31 32 33 34 35 36 37 38 39 40 41 42 43 44 45 46 47 48 49 50
000
ASUS43 KOAX 261402
RWRNE

WEATHER ROUNDUP FOR NEBRASKA
NATIONAL WEATHER SERVICE OMAHA NE
900 AM CDT WED JUL 26 2017

NOTES: SATELLITE DATA IS BEING USED TO AUGMENT CLOUD COVER ABOVE
       12000 FEET.
       "FAIR" INDICATES FEW OR NO CLOUDS BELOW 12,000 FEET WITH NO
       SIGNIFICANT WEATHER AND/OR OBSTRUCTIONS TO VISIBILITY.


NEZ001>004-019>022-054>056-261500-
NEBRASKA PANHANDLE

CITY           SKY/WX    TMP DP  RH WIND       PRES   REMARKS
SCOTTSBLUFF    LGT RAIN  66  61  84 NW9       30.18R
ALLIANCE       CLOUDY    67  59  75 N13       30.16R
CHADRON        CLOUDY    73  51  46 N9        30.15R
GORDON         PTSUNNY   70  64  80 N8        30.13R
KIMBALL        CLOUDY    67  61  80 N14       30.22R
SIDNEY         CLOUDY    70  63  78 N13       30.16S
$$

NEZ057>060-069>072-079>082-261500-
SOUTHWEST NEBRASKA

CITY           SKY/WX    TMP DP  RH WIND       PRES   REMARKS
NORTH PLATTE   CLOUDY    71  67  87 N10       30.03R
IMPERIAL       CLOUDY    68  64  87 N14       30.05R
LEXINGTON      CLOUDY    71  68  89 E8        29.97S
MCCOOK         CLOUDY    72  69  90 NE13      29.95R
OGALLALA       CLOUDY    73  65  78 N9        30.07S
$$

NEZ005>010-023>029-035>040-094-261500-
NORTH CENTRAL NEBRASKA

CITY           SKY/WX    TMP DP  RH WIND       PRES   REMARKS
VALENTINE      CLOUDY    72  66  81 E7        30.06F
AINSWORTH      CLOUDY    69  69 100 N10       30.07S
BROKEN BOW     MOSUNNY   72  67  84 N7        30.01R
O`NEILL        CLOUDY    70  70 100 N8        30.04R
ORD            CLOUDY    72  67  84 NE7       29.99R
THEDFORD       CLOUDY    69  67  93 N6        30.08R
$$

NEZ041-046>049-061>064-073>077-083>087-261500-
SOUTH CENTRAL NEBRASKA

CITY           SKY/WX    TMP DP  RH WIND       PRES   REMARKS
GRAND ISLAND   CLOUDY    72  72 100 E7        29.98R
AURORA         CLOUDY    72  72 100 E5        29.97R FOG
HASTINGS       CLOUDY    72  70  93 E8        29.97R
HEBRON         CLOUDY    75  74  95 SE9       29.95S
HOLDREGE       CLOUDY    70  69  94 NE7       29.96S
KEARNEY        CLOUDY    72  70  93 E8        29.97R
YORK           CLOUDY    73  73 100 SE7       29.98R
$$

NEZ011>018-030>034-042>045-261500-
NORTHEAST NEBRASKA

CITY           SKY/WX    TMP DP  RH WIND       PRES   REMARKS
NORFOLK        CLOUDY    73  70  90 N5        29.97R
ALBION         CLOUDY    73  72  95 CALM      29.99R
BLAIR          HVY RAIN  75  73  96 S14       29.97F
COLUMBUS       CLOUDY    73  72  96 E7        29.98R FOG
FREMONT        CLOUDY    75  74  96 S13G18    29.96F
TEKAMAH        LGT RAIN  75  72  90 SE8       29.96R
WAYNE          CLOUDY    74  74  99 SE6       29.98R
$$

NEZ050>053-065>068-078-088>093-261500-
SOUTHEAST NEBRASKA

CITY           SKY/WX    TMP DP  RH WIND       PRES   REMARKS
LINCOLN        LGT RAIN  75  73  93 SE10      29.99R
OMAHA EPPLEY   CLOUDY    76  72  87 S13       29.98S
BEATRICE       LGT RAIN  74  73  96 SE10      29.97F
FALLS CITY     RAIN      74  74 100 N5        30.04R
NEBRASKA CITY  RAIN      72  72 100 CALM      30.02S
$$

NEZ044-045-051>053-067-261500-
OMAHA AREA

CITY           SKY/WX    TMP DP  RH WIND       PRES   REMARKS
OMAHA EPPLEY   CLOUDY    76  72  87 S13       29.98S
BLAIR          HVY RAIN  75  73  96 S14       29.97F
FREMONT        CLOUDY    75  74  96 S13G18    29.96F
MILLARD        CLOUDY    76  75  96 S8        29.98F
OFFUTT AFB     CLOUDY    75  73  95 SE7       29.99R
WAHOO          PTSUNNY   75  73  96 S14       29.97F
$$




USA.gov is the U.S. government's official web portal to all federal, state and local government web resources and services.